This is the latest recevied weather packets stored in our database for station/object GCEMA. If no packets are shown the sender has not sent any weather packets the latest 10 day(s).
| Time | Temp. | Humidity | Pressure | Rain* | Wind** | Luminosity | Snow |
|---|---|---|---|---|---|---|---|
| 1777303190 | 22.78° C | - | 1009.2 hPa | 0 mm | 0 m/s | - | - |
| 1777303011 | 22.78° C | - | 1009.2 hPa | 0 mm | 0 m/s | - | - |
| 1777302832 | 22.22° C | - | 1009.3 hPa | 0 mm | 0 m/s | - | - |
| 1777302652 | 22.22° C | - | 1009.3 hPa | 0 mm | 0 m/s | - | - |
| 1777302469 | 21.67° C | - | 1009.3 hPa | 0 mm | 0 m/s | - | - |
| 1777302290 | 22.22° C | - | 1009.3 hPa | 0 mm | 0 m/s | - | - |
| 1777302110 | 22.22° C | - | 1009.2 hPa | 0 mm | 0 m/s | - | - |
| 1777301932 | 22.22° C | - | 1009.3 hPa | 0 mm | 0 m/s | - | - |
| 1777301752 | 22.22° C | - | 1009.3 hPa | 0 mm | 0 m/s | - | - |
| 1777301570 | 22.22° C | - | 1009.3 hPa | 0 mm | 0 m/s | - | - |
| 1777301210 | 22.22° C | - | 1009.5 hPa | 0 mm | 0 m/s | - | - |
| 1777301031 | 22.22° C | - | 1009.5 hPa | 0 mm | 0 m/s | - | - |
| 1777300670 | 21.67° C | - | 1009.5 hPa | 0 mm | 0 m/s | - | - |
| 1777300311 | 21.11° C | - | 1009.4 hPa | 0 mm | 0 m/s | - | - |
| 1777300131 | 21.11° C | - | 1009.3 hPa | 0 mm | 0 m/s | - | - |
| 1777299951 | 21.11° C | - | 1009.2 hPa | 0 mm | 0 m/s | - | - |
| 1777299769 | 20.56° C | - | 1008.9 hPa | 0 mm | 0 m/s | - | - |
| 1777299590 | 20.56° C | - | 1008.7 hPa | 0 mm | 0 m/s | - | - |
| 1777299411 | 20° C | - | 1008.8 hPa | 0 mm | 0 m/s | - | - |
| 1777299230 | 19.44° C | - | 1008.9 hPa | 0 mm | 0 m/s | - | - |
| 1777299050 | 21.11° C | - | 1009 hPa | 0 mm | 0 m/s | - | - |
| 1777298867 | 20.56° C | - | 1009.2 hPa | 0 mm | 0 m/s | - | - |
| 1777298688 | 20.56° C | - | 1009.5 hPa | 0 mm | 0 m/s | - | - |
| 1777298508 | 20.56° C | - | 1009.7 hPa | 0 mm | 0 m/s | - | - |
| 1777298329 | 21.11° C | - | 1009.9 hPa | 0 mm | 0 m/s | - | - |
* Rain latest hour (hover to see other rain measurements)
** Current wind speed in m/s (hover to see current wind gust speed)